Location: La Fredeussais
(48.1780°N, 1.3980°W)
Time: 03:02:28
(UTC+00:00)

X-37B - Pass Details

Date: 03 August 2021
Orbit: 381 x 393 km, 45.0° (Epoch: 29 August)

Event Time Altitude Azimuth Distance (km) Brightness Sun altitude
Exits shadow 03:12:17 15° 176° (S) 1,123 2.5 -13.0°
Maximum altitude 03:13:13 17° 153° (SSE) 1,048 2.6 -12.9°
Drops below altitude 10° 03:15:23 10° 110° (ESE) 1,397 3.7 -12.7°
Sets 03:17:54 0° 89° (E) 2,253 5.2 -12.4°
